Location: Cu�las
(43.3512°N, 0.4528°E)
Time: 22:04:34
(UTC+00:00)

Daily predictions for brighter satellites

Satellite Brightness Start Highest point End
(mag) Time Altitude Azimuth Time Altitude Azimuth Time Altitude Azimuth
Cosmos 2369 Rocket 3.4 18:16:29 10° SE 18:20:31 20° E 18:24:34 10° NE
SL-08 RB Rocket 3.9 18:17:30 10° SE 18:21:47 48° ENE 18:26:06 10° N
BREEZE-M DEB (TANK) 1.8 18:21:37 10° WNW 18:23:45 50° NNE 18:25:41 10° E
CZ-2C R/B 2.7 18:18:16 10° NNE 18:23:50 77° ESE 18:29:26 10° S
Cosmos 1400 Rocket 3.7 18:21:02 10° SSE 18:24:33 28° E 18:28:03 10° NNE
Lacrosse 4 Rocket 4.0 18:22:48 10° W 18:25:51 20° NW 18:28:55 10° N
Cosmos 2297 3.8 18:22:18 10° S 18:27:49 56° ESE 18:33:25 10° NNE
SeaSat 1 3.9 18:25:53 10° E 18:29:27 20° NE 18:33:01 10° N
Cosmos 1733 Rocket 3.1 18:25:53 10° S 18:30:12 84° W 18:34:33 10° N
Cosmos 2221 Rocket 3.7 18:26:31 10° N 18:30:57 80° W 18:35:20 10° S
Spot 2 4.1 18:27:31 10° SSE 18:31:49 85° WSW 18:35:57 10° NNW
Cosmos 1238 Rocket 4.2 18:30:16 10° SSE 18:36:20 46° E 18:41:48 10° NNE
H-2A R/B 2.0 18:34:01 10° NNE 18:38:11 58° ESE 18:42:14 10° S
Meteor 1-21 4.2 18:32:53 10° N 18:38:35 80° E 18:44:11 10° SSE
Cosmos 921 Rocket 4.4 18:34:51 10° NNW 18:38:53 41° W 18:42:51 10° S
DMSP B5D2-2 4.3 18:34:23 10° NNE 18:39:32 48° E 18:44:36 10° S
Cosmos 1674 3.6 18:40:07 10° NNE 18:43:17 26° ENE 18:46:24 10° SE
Cosmos 1707 2.7 18:41:24 10° N 18:45:17 66° E 18:49:10 10° SSE
H-2A R/B 3.5 18:43:21 10° SSW 18:48:02 40° W 18:52:52 10° NNW
IRS-1C Rocket 4.1 18:43:59 10° SSE 18:49:11 68° ENE 18:54:25 10° N
CZ-4B R/B 1.6 18:48:04 10° NNE 18:50:58 37° E 18:53:53 10° S
CZ-3B R/B 4.0 18:44:36 10° NW 18:53:21 39° WSW 18:56:32 10° S
Okean-O 2.7 18:49:17 10° SSE 18:53:37 59° ENE 18:58:00 10° N
Atlas Centaur 2 4.1 18:47:36 10° SW 18:54:33 29° SSE 19:00:06 15° ESE
USA 215 3.5 18:49:44 13° ESE 18:55:30 60° NNE 19:01:57 10° NW
PSLV R/B 4.5 18:53:41 10° NNE 18:57:31 35° E 19:01:17 10° SSE
KORONAS-FOTON 4.1 18:54:57 10° N 18:58:33 41° ENE 19:01:46 12° SSE
Cosmos 1025 Rocket 4.5 18:56:34 10° NNE 18:59:37 18° ENE 19:00:13 18° E
Cosmos 2074 Rocket 4.0 18:53:42 10° S 18:59:57 88° E 19:06:16 10° N
COSMOS 2455 2.8 18:54:35 10° NNW 19:00:40 85° ENE 19:06:42 10° SSE
Cosmos 1626 3.0 19:00:51 10° NNE 19:04:07 29° ENE 19:05:11 24° ESE
USA 276 3.8 19:02:16 10° WNW 19:05:03 28° NNW 19:07:18 13° NE
H-2A R/B 4.1 19:02:45 10° SSW 19:06:54 39° W 19:11:09 10° NNW
In-Cosmos 22 4.1 19:02:25 10° NNW 19:07:43 85° W 19:13:01 10° S
Cosmos 1975 Rocket 3.7 19:03:42 10° N 19:07:47 36° ENE 19:10:06 21° SE
Cosmos 1340 3.8 19:04:37 10° NNW 19:08:14 45° W 19:11:50 10° SSW
Cosmos 1733 4.0 19:06:53 22° SE 19:08:17 29° E 19:11:35 10° NNE
Resurs 01 Rocket 3.6 19:10:07 13° ENE 19:10:07 13° ENE 19:11:46 10° NE
MetOp-A 4.1 19:04:56 10° SSE 19:10:14 71° ENE 19:15:35 10° N
HJ-1C 4.2 19:08:04 10° S 19:11:16 51° W 19:14:29 10° NNW
Cosmos 1346 Rocket 3.1 19:10:03 10° N 19:13:56 45° ENE 19:15:51 25° SE
USA 186 2.0 19:15:19 39° ENE 19:15:23 39° ENE 19:18:15 10° N
CSL-04 Rocket 3.6 19:15:42 10° SSE 19:21:02 81° ENE 19:26:30 10° NNW
Cosmos 1908 Rocket 4.1 19:20:22 10° SSW 19:24:47 61° W 19:29:14 10° N
NOSS 3-2 (A) 4.3 19:21:21 10° SSE 19:33:26 - NE 19:24:05 22° SE
ATLAS CENTAUR R/B 1.9 19:24:45 10° NW 19:29:26 69° WSW 19:32:34 22° SSE
OBJECT-B 0.6 19:29:29 61° ESE 19:29:50 69° ENE 19:32:59 10° N
Cosmos 1461 4.2 19:29:00 10° NW 19:32:38 34° WSW 19:35:38 13° S
Cosmos 1777 Rocket 3.9 19:30:16 10° SSW 19:35:31 85° ESE 19:40:47 10° NNE
Cosmos 1184 Rocket 3.0 19:39:15 10° N 19:41:53 56° N 19:41:53 56° N
Cosmos 962 Rocket 4.3 19:37:15 10° S 19:43:25 74° E 19:49:34 10° NNE
Lacrosse 5 rocket 1.5 19:40:17 10° NW 19:44:50 80° SW 19:45:50 52° SSE
Meteor 1-24 Rocket 4.2 19:42:28 10° N 19:47:23 37° ENE 19:47:23 37° ENE
CZ-4 R/B 4.1 19:45:17 10° SW 19:47:53 17° W 19:50:30 10° NW
SJ 16-02 1.2 19:44:22 10° SSW 19:48:47 88° ESE 19:53:14 10° NNE
ISS -1.6 19:47:30 10° NW 19:50:04 20° N 19:50:41 19° NNE
Cosmos 1315 Rocket 2.7 19:52:22 49° S 19:53:24 89° W 19:57:26 10° N
Cosmos 1943 Rocket 3.8 19:50:45 10° WSW 19:55:48 35° NW 20:00:55 10° N
MOS 1 4.3 19:55:59 48° SE 19:57:23 63° ENE 20:03:00 10° N
Cosmos 1833 4.2 19:53:33 10° NNW 19:59:10 63° ENE 20:00:03 55° ESE
IRS-1A Rocket 4.3 19:58:48 49° SE 20:00:13 64° ENE 20:06:04 10° N
SJ-6B 3.2 19:59:16 48° SSW 20:00:15 66° WSW 20:04:21 10° NNW
Cosmos 2369 Rocket 2.7 19:58:27 10° SW 20:04:02 60° WNW 20:09:39 10° NNE
Sich 1 Rocket 3.5 20:05:16 84° SE 20:05:22 86° E 20:09:56 10° N
SL-14 R/B 3.6 20:02:09 10° N 20:05:30 61° NNW 20:05:30 61° NNW
SeaSat 1 2.6 20:05:07 46° S 20:06:30 69° WSW 20:11:26 10° NNW
EO 1 Delta rocket 3.8 20:07:04 71° SE 20:07:32 80° E 20:12:53 10° N
Meteor 2-20 4.3 20:01:35 10° N 20:07:43 80° E 20:09:34 47° SSE
Helios 1A Rocket 3.2 20:11:45 63° NNW 20:11:45 63° NNW 20:15:14 10° NNW
SL-8 Rocket 3.9 20:09:51 14° S 20:15:20 89° E 20:21:41 10° N
USA 281 3.5 20:11:29 10° NNE 20:16:36 47° ENE 20:16:36 47° ENE
Meteor 1-15 Rocket 4.4 20:13:04 10° SSW 20:18:36 67° WNW 20:24:11 10° N
Landsat 7 4.5 20:22:36 45° NNE 20:22:36 45° NNE 20:26:04 10° N
Cosmos 1727 Rocket 4.1 20:26:20 10° N 20:32:02 61° NE 20:32:02 61° NE
Ariane Rocket 3.1 20:33:46 71° WNW 20:33:46 71° WNW 20:38:31 10° NNW
Meteor 1-22 Rocket 4.2 20:34:20 82° WNW 20:34:20 82° WNW 20:40:07 10° N
Meteor 2-20 Rocket 4.3 20:28:35 10° N 20:34:45 87° W 20:35:05 81° SSW
Meteor 2-5 Rocket 3.8 20:30:46 10° NNW 20:36:17 70° W 20:36:33 69° WSW
Cosmos 1025 Rocket 4.3 20:33:21 10° NNW 20:37:07 39° W 20:37:07 39° W
USA 215 3.9 20:37:05 39° SSW 20:38:37 45° SW 20:44:53 10° WNW
Atlas Centaur 2 3.9 20:36:07 10° WSW 20:42:41 32° SSW 20:42:41 32° SSW
Resurs 01 Rocket 3.2 20:47:42 32° NNW 20:47:42 32° NNW 20:50:08 10° NNW
Cosmos 2297 Rocket 4.0 21:22:58 10° NNW 21:25:21 24° N 21:25:21 24° N
Cosmos 2227 Rocket 4.3 21:45:04 10° NNW 21:47:00 21° N 21:47:00 21° N
CENTAUR R/B 4.5 22:44:46 26° NNW 22:44:46 26° NNW 22:49:34 10° NNE
